Weather History for Perry, FL

Change the Weather History Date:

Wednesday, May 1, 2013

  Actual Average (KCTY) Record (KCTY)
Temperature  
Mean Temperature 70 °F 70 °F  
Max Temperature 75 °F 84 °F 93 °F (2012)
Min Temperature 64 °F 57 °F 46 °F (2008)
Degree Days  
Heating Degree Days 0 0  
Month to date heating degree days 0  
Since 1 July heating degree days 1303  
Cooling Degree Days 6 6  
Month to date cooling degree days 6  
Year to date cooling degree days 188  
Growing Degree Days 20 (Base 50)    
Moisture  
Dew Point 66 °F    
Average Humidity 87    
Maximum Humidity 100    
Minimum Humidity 66    
Precipitation  
Precipitation 0.04 in 0.06 in 0.49 in (2005)
Month to date precipitation 0.06  
Year to date precipitation 14.54  
Sea Level Pressure  
Sea Level Pressure 30.02 in    
Wind  
Wind Speed 5 mph (ENE)    
Max Wind Speed 10 mph    
Max Gust Speed 18 mph    
Visibility 10 miles    
Events Rain    
T = Trace of Precipitation, MM = Missing Value Source: NWS Daily Summary

Daily Weather History Graph

Daily Weather History Graph

Search for Another Location

Airport:

Trip Planner

Search our weather history database for the weather conditions in past years. The results will help you decide how hot, cold, wet, or windy it might be!

Date:

Astronomy

May. 01, 2013 Rise Set
Actual Time 6:51 AM EDT 8:11 PM EDT
Civil Twilight 6:25 AM EDT 8:37 PM EDT
Nautical Twilight 5:55 AM EDT 9:07 PM EDT
Astronomical Twilight 5:24 AM EDT 9:39 PM EDT
Moon 1:19 AM EDT (5/1) 12:28 PM EDT (5/1)
Length of Visible Light 14h 11m
Length of Day
13h 20m
Waning Gibbous, 59% of the Moon is Illuminated
May 1
Waning Gibbous
May 2
Last Quarter
May 9
New
May 18
First Quarter
May 25
Full

Hourly Weather History & Observations

Time (EDT) Temp. Dew Point Humidity Pressure Visibility Wind Dir Wind Speed Gust Speed Precip Events Conditions
12:15 AM 71.6 °F 68.0 °F 88% 30.03 in 10.0 mi East 4.6 mph - N/A   Scattered Clouds
12:35 AM 71.6 °F 71.6 °F 100% 30.02 in 10.0 mi ESE 3.5 mph - N/A   Scattered Clouds
12:53 AM 69.1 °F 63.0 °F 81% 30.01 in - ESE 4.6 mph - N/A   Unknown
12:55 AM 69.8 °F 69.8 °F 100% 30.02 in 10.0 mi ESE 4.6 mph - N/A   Clear
1:15 AM 69.8 °F 69.8 °F 100% 30.02 in 10.0 mi East 8.1 mph - N/A   Clear
1:35 AM 71.6 °F 64.4 °F 78% 30.01 in 10.0 mi East 8.1 mph - N/A   Clear
1:53 AM 70.0 °F 61.0 °F 73% 30.00 in - Variable 4.6 mph - 0.01 in   Unknown
1:55 AM 69.8 °F 64.4 °F 83% 30.01 in 10.0 mi East 4.6 mph - N/A   Clear
2:15 AM 69.8 °F 64.4 °F 83% 30.01 in 10.0 mi East 3.5 mph - N/A   Clear
2:35 AM 69.8 °F 69.8 °F 100% 30.01 in 10.0 mi Calm Calm - N/A   Clear
2:53 AM 68.0 °F 62.1 °F 81% 29.98 in - Variable 3.5 mph - N/A   Unknown
2:55 AM 68.0 °F 68.0 °F 100% 30.00 in 10.0 mi ENE 3.5 mph - N/A   Clear
3:15 AM 68.0 °F 68.0 °F 100% 29.99 in 10.0 mi ENE 3.5 mph - N/A   Clear
3:35 AM 68.0 °F 68.0 °F 100% 29.98 in 10.0 mi ENE 4.6 mph - N/A   Clear
3:53 AM 66.9 °F 62.1 °F 84% 29.97 in - ENE 4.6 mph - N/A   Unknown
3:55 AM 68.0 °F 68.0 °F 100% 29.98 in 10.0 mi NE 5.8 mph - N/A   Clear
4:15 AM 68.0 °F 68.0 °F 100% 29.97 in 10.0 mi Calm Calm - N/A   Clear
4:35 AM 68.0 °F 68.0 °F 100% 29.98 in 10.0 mi Calm Calm - N/A   Clear
4:53 AM 66.0 °F 62.1 °F 87% 29.96 in - ENE 5.8 mph - 0.01 in   Unknown
4:55 AM 66.2 °F 66.2 °F 100% 29.98 in 10.0 mi ENE 3.5 mph - N/A   Clear
5:15 AM 66.2 °F 66.2 °F 100% 29.98 in 10.0 mi NE 3.5 mph - N/A   Clear
5:35 AM 66.2 °F 66.2 °F 100% 29.98 in 10.0 mi ENE 3.5 mph - N/A   Clear
5:53 AM 64.9 °F 61.0 °F 87% 29.98 in - NE 4.6 mph - N/A   Unknown
5:55 AM 64.4 °F 64.4 °F 100% 29.99 in 10.0 mi ENE 3.5 mph - N/A   Clear
6:15 AM 64.4 °F 64.4 °F 100% 29.99 in 10.0 mi Calm Calm - N/A   Clear
6:35 AM 64.4 °F 64.4 °F 100% 30.00 in 10.0 mi ENE 6.9 mph - N/A   Clear
6:53 AM 64.9 °F 62.1 °F 90% 29.99 in - NE 5.8 mph - N/A   Unknown
6:55 AM 64.4 °F 64.4 °F 100% 30.00 in 10.0 mi NE 3.5 mph - N/A   Clear
7:15 AM 64.4 °F - N/A% 30.00 in 10.0 mi NE 5.8 mph - N/A   Clear
7:35 AM 64.4 °F - N/A% 30.01 in 10.0 mi NE 6.9 mph - N/A   Clear
7:53 AM 64.9 °F 61.0 °F 87% 30.01 in - ENE 9.2 mph 16.1 mph 0.01 in   Unknown
7:55 AM 64.4 °F 64.4 °F 100% 30.02 in 10.0 mi ENE 8.1 mph - N/A   Scattered Clouds
8:15 AM 64.4 °F 64.4 °F 100% 30.03 in 10.0 mi ENE 3.5 mph - N/A   Scattered Clouds
8:35 AM 66.2 °F 66.2 °F 100% 30.03 in 10.0 mi ENE 5.8 mph - N/A   Mostly Cloudy
8:53 AM 66.0 °F 61.0 °F 84% 30.02 in - ENE 6.9 mph - N/A   Unknown
8:55 AM 66.2 °F 66.2 °F 100% 30.04 in 10.0 mi ENE 4.6 mph - N/A   Overcast
9:15 AM 68.0 °F 68.0 °F 100% 30.03 in 10.0 mi ENE 8.1 mph - N/A   Overcast
9:35 AM 68.0 °F 68.0 °F 100% 30.03 in 10.0 mi ENE 6.9 mph - N/A   Overcast
9:53 AM 68.0 °F 62.1 °F 81% 30.02 in - NE 4.6 mph - N/A   Unknown
9:55 AM 68.0 °F 68.0 °F 100% 30.03 in 10.0 mi ENE 6.9 mph - N/A   Overcast
10:15 AM 69.8 °F 69.8 °F 100% 30.05 in 10.0 mi East 5.8 mph - N/A   Overcast
10:35 AM 69.8 °F 69.8 °F 100% 30.05 in 10.0 mi East 5.8 mph - N/A   Overcast
10:53 AM 69.1 °F 62.1 °F 78% 30.05 in - East 4.6 mph - N/A   Unknown
10:55 AM 69.8 °F 69.8 °F 100% 30.06 in 10.0 mi East 3.5 mph - N/A   Overcast
11:15 AM 69.8 °F 69.8 °F 100% 30.06 in 10.0 mi East 6.9 mph - N/A   Mostly Cloudy
11:35 AM 69.8 °F 69.8 °F 100% 30.07 in 10.0 mi East 4.6 mph - N/A   Scattered Clouds
11:53 AM 71.1 °F 63.0 °F 75% 30.04 in - NE 9.2 mph - N/A   Unknown
11:55 AM 71.6 °F 66.2 °F 83% 30.06 in 10.0 mi NE 9.2 mph - N/A   Scattered Clouds
12:15 PM 71.6 °F 66.2 °F 83% 30.05 in 10.0 mi ENE 8.1 mph - N/A   Scattered Clouds
12:35 PM 71.6 °F 66.2 °F 83% 30.06 in 10.0 mi East 5.8 mph - N/A   Mostly Cloudy
12:53 PM 73.0 °F 63.0 °F 71% 30.04 in - East 5.8 mph - N/A   Unknown
12:55 PM 73.4 °F 66.2 °F 78% 30.05 in 10.0 mi East 6.9 mph - N/A   Scattered Clouds
1:15 PM 73.4 °F 66.2 °F 78% 30.05 in 10.0 mi East 5.8 mph - N/A   Scattered Clouds
1:35 PM 75.2 °F 66.2 °F 73% 30.05 in 10.0 mi East 6.9 mph - N/A   Mostly Cloudy
1:53 PM 75.0 °F 63.0 °F 66% 30.03 in - Variable 6.9 mph - N/A   Unknown
1:55 PM 75.2 °F 66.2 °F 73% 30.04 in 10.0 mi ENE 5.8 mph - N/A   Mostly Cloudy
2:15 PM 75.2 °F 64.4 °F 69% 30.04 in 10.0 mi East 6.9 mph - N/A   Overcast
2:35 PM 75.2 °F 66.2 °F 73% 30.03 in 10.0 mi NE 5.8 mph - N/A   Overcast
2:53 PM 75.0 °F 64.0 °F 69% 30.02 in - ENE 6.9 mph - N/A   Unknown
2:55 PM 75.2 °F 68.0 °F 78% 30.03 in 10.0 mi East 4.6 mph - N/A   Light Drizzle
3:15 PM 75.2 °F 66.2 °F 73% 30.02 in 10.0 mi ENE 4.6 mph - N/A   Overcast
3:35 PM 77.0 °F 66.2 °F 69% 30.02 in 10.0 mi ENE 4.6 mph - N/A   Overcast
3:53 PM 75.9 °F 64.0 °F 67% 30.00 in - NE 4.6 mph - N/A   Unknown
3:55 PM 75.2 °F 68.0 °F 78% 30.01 in 10.0 mi ENE 3.5 mph - N/A   Mostly Cloudy
4:15 PM 75.2 °F 68.0 °F 78% 30.01 in 10.0 mi NE 5.8 mph - N/A   Light Drizzle
4:35 PM 75.2 °F 68.0 °F 78% 30.01 in 10.0 mi NE 4.6 mph - N/A   Mostly Cloudy
4:53 PM 75.0 °F 64.9 °F 71% 29.99 in - NE 4.6 mph - N/A   Unknown
4:55 PM 75.2 °F 68.0 °F 78% 30.00 in 10.0 mi NE 3.5 mph - N/A   Mostly Cloudy
5:15 PM 73.4 °F 68.0 °F 83% 30.00 in 10.0 mi NE 5.8 mph - N/A   Light Drizzle
5:35 PM 73.4 °F 68.0 °F 83% 30.01 in 10.0 mi NE 6.9 mph - N/A   Overcast
5:53 PM 73.9 °F 64.9 °F 73% 29.99 in - NE 8.1 mph - N/A   Unknown
5:55 PM 73.4 °F 68.0 °F 83% 30.00 in 10.0 mi NE 6.9 mph - N/A   Overcast
6:15 PM 73.4 °F 68.0 °F 83% 30.00 in 10.0 mi NE 6.9 mph - N/A   Overcast
6:35 PM 73.4 °F 68.0 °F 83% 30.00 in 10.0 mi ENE 5.8 mph - N/A   Light Drizzle
6:53 PM 73.0 °F 64.0 °F 73% 29.99 in - ENE 9.2 mph - N/A   Unknown
6:55 PM 73.4 °F 66.2 °F 78% 30.00 in 10.0 mi ENE 5.8 mph - N/A   Light Drizzle
7:15 PM 73.4 °F 64.4 °F 73% 30.00 in 10.0 mi ENE 6.9 mph - N/A   Overcast
7:35 PM 71.6 °F 64.4 °F 78% 30.00 in 10.0 mi ENE 10.4 mph 18.4 mph N/A   Overcast
7:53 PM 71.1 °F 63.0 °F 75% 30.01 in - Variable 5.8 mph - N/A   Unknown
7:55 PM 71.6 °F 64.4 °F 78% 30.02 in 10.0 mi East 6.9 mph 18.4 mph N/A Rain Light Rain
8:15 PM 69.8 °F 64.4 °F 83% 30.02 in 10.0 mi ENE 8.1 mph 16.1 mph N/A   Light Drizzle
8:35 PM 69.8 °F 68.0 °F 94% 30.03 in 10.0 mi ENE 6.9 mph - N/A   Scattered Clouds
8:53 PM 69.1 °F 62.1 °F 78% 30.02 in - Variable 6.9 mph - 0.01 in   Unknown
8:55 PM 69.8 °F 69.8 °F 100% 30.03 in 10.0 mi ENE 8.1 mph - N/A   Mostly Cloudy
9:35 PM 68.0 °F 68.0 °F 100% 30.04 in 10.0 mi ENE 6.9 mph - N/A   Mostly Cloudy
9:53 PM 68.0 °F 61.0 °F 78% 30.03 in - NE 6.9 mph - N/A   Unknown
9:55 PM 68.0 °F 68.0 °F 100% 30.04 in 10.0 mi NE 6.9 mph - N/A   Overcast
10:35 PM 68.0 °F 68.0 °F 100% 30.06 in 10.0 mi NE 6.9 mph - N/A   Mostly Cloudy
10:53 PM 66.9 °F 60.1 °F 79% 30.04 in - NE 9.2 mph - N/A   Unknown
10:55 PM 68.0 °F 68.0 °F 100% 30.05 in 10.0 mi NE 8.1 mph - N/A   Mostly Cloudy
11:35 PM 68.0 °F 62.6 °F 83% 30.05 in 10.0 mi NE 6.9 mph - N/A   Mostly Cloudy
11:53 PM 66.9 °F 59.0 °F 76% 30.04 in - ENE 9.2 mph - N/A   Unknown
11:55 PM 68.0 °F 62.6 °F 83% 30.05 in 10.0 mi ENE 5.8 mph - N/A   Overcast